| time (UTC) | temp F | wind direction | speed MPH | gust MPH | rain 1hr in | rain 24hr in | rain mn in | humidity % | barometer mb |
| 20260901210734 | 91 | 36 | 0.0 | 1.0 | 0.00 | 0.00 | 0.00 | 67 | 973.7 |
| 20260901210229 | 92 | 36 | 1.0 | 4.0 | 0.00 | 0.00 | 0.00 | 65 | 973.7 |
| 20260901205723 | 93 | 36 | 2.0 | 6.0 | 0.00 | 0.00 | 0.00 | 62 | 973.7 |
| 20260901205216 | 94 | 36 | 3.0 | 7.0 | 0.00 | 0.00 | 0.00 | 61 | 973.7 |
| 20260901204711 | 95 | 42 | 2.0 | 7.0 | 0.00 | 0.00 | 0.00 | 62 | 973.7 |
| 20260901203659 | 95 | 78 | 2.0 | 8.0 | 0.00 | 0.00 | 0.00 | 60 | 973.7 |
| 20260901203152 | 95 | 281 | 2.0 | 8.0 | 0.00 | 0.00 | 0.00 | 57 | 973.8 |
| 20260901202646 | 94 | 29 | 1.0 | 4.0 | 0.00 | 0.00 | 0.00 | 61 | 973.8 |
| 20260901202140 | 94 | 74 | 1.0 | 4.0 | 0.00 | 0.00 | 0.00 | 59 | 973.8 |
| 20260901201634 | 94 | 351 | 1.0 | 4.0 | 0.00 | 0.00 | 0.00 | 59 | 973.8 |
| 20260901200622 | 94 | 330 | 2.0 | 6.0 | 0.00 | 0.00 | 0.00 | 60 | 973.9 |
| 20260901200117 | 94 | 248 | 2.0 | 6.0 | 0.00 | 0.00 | 0.00 | 62 | 973.9 |
| 20260901195611 | 94 | 316 | 2.0 | 7.0 | 0.00 | 0.00 | 0.00 | 60 | 974.0 |
| 20260901195104 | 93 | 313 | 2.0 | 7.0 | 0.00 | 0.00 | 0.00 | 63 | 974.1 |
| 20260901194558 | 93 | 323 | 2.0 | 6.0 | 0.00 | 0.00 | 0.00 | 62 | 974.1 |
| 20260901193547 | 93 | 287 | 4.0 | 8.0 | 0.00 | 0.00 | 0.00 | 63 | 974.2 |
| 20260901193041 | 93 | 301 | 4.0 | 9.0 | 0.00 | 0.00 | 0.00 | 63 | 974.2 |
| 20260901192535 | 93 | 288 | 3.0 | 9.0 | 0.00 | 0.00 | 0.00 | 63 | 974.3 |
| 20260901192028 | 93 | 305 | 3.0 | 9.0 | 0.00 | 0.00 | 0.00 | 62 | 974.3 |
| 20260901191522 | 92 | 321 | 3.0 | 10.0 | 0.00 | 0.00 | 0.00 | 60 | 974.4 |
| 20260901191018 | 92 | 315 | 2.0 | 10.0 | 0.00 | 0.00 | 0.00 | 62 | 974.4 |
| 20260901190512 | 92 | 346 | 2.0 | 7.0 | 0.00 | 0.00 | 0.00 | 64 | 974.5 |
| 20260901190005 | 92 | 298 | 4.0 | 9.0 | 0.00 | 0.00 | 0.00 | 61 | 974.5 |
| 20260901185458 | 93 | 301 | 4.0 | 9.0 | 0.00 | 0.00 | 0.00 | 65 | 974.6 |
| 20260901184952 | 93 | 296 | 2.0 | 8.0 | 0.00 | 0.00 | 0.00 | 62 | 974.6 |
| 20260901184448 | 93 | 336 | 2.0 | 4.0 | 0.00 | 0.00 | 0.00 | 65 | 974.6 |
| 20260901183940 | 92 | 137 | 1.0 | 4.0 | 0.00 | 0.00 | 0.00 | 61 | 974.7 |
| 20260901183435 | 92 | 36 | 1.0 | 3.0 | 0.00 | 0.00 | 0.00 | 60 | 974.7 |
| 20260901182936 | 92 | 36 | 2.0 | 7.0 | 0.00 | 0.00 | 0.00 | 65 | 974.7 |
| 20260901182434 | 92 | 293 | 3.0 | 8.0 | 0.00 | 0.00 | 0.00 | 62 | 974.7 |
| 20260901181931 | 92 | 344 | 2.0 | 8.0 | 0.00 | 0.00 | 0.00 | 64 | 974.7 |
| 20260901181432 | 92 | 346 | 2.0 | 5.0 | 0.00 | 0.00 | 0.00 | 63 | 974.8 |
| 20260901180430 | 92 | 319 | 2.0 | 6.0 | 0.00 | 0.00 | 0.00 | 62 | 974.9 |
| 20260901175930 | 92 | 321 | 1.0 | 4.0 | 0.00 | 0.00 | 0.00 | 63 | 974.9 |
| 20260901175430 | 92 | 19 | 2.0 | 4.0 | 0.00 | 0.00 | 0.00 | 61 | 974.9 |
| 20260901174928 | 92 | 319 | 2.0 | 8.0 | 0.00 | 0.00 | 0.00 | 62 | 975.0 |
| 20260901173930 | 92 | 31 | 2.0 | 6.0 | 0.00 | 0.00 | 0.00 | 64 | 975.0 |
| 20260901173426 | 91 | 317 | 2.0 | 6.0 | 0.00 | 0.00 | 0.00 | 65 | 975.0 |
| 20260901172926 | 91 | 322 | 3.0 | 7.0 | 0.00 | 0.00 | 0.00 | 61 | 975.0 |
| 20260901172426 | 91 | 307 | 3.0 | 8.0 | 0.00 | 0.00 | 0.00 | 62 | 975.0 |
| 20260901171926 | 91 | 327 | 3.0 | 8.0 | 0.00 | 0.00 | 0.00 | 62 | 975.1 |
| 20260901171426 | 91 | 304 | 3.0 | 8.0 | 0.00 | 0.00 | 0.00 | 62 | 975.2 |
| 20260901170924 | 91 | 294 | 3.0 | 8.0 | 0.00 | 0.00 | 0.00 | 63 | 975.2 |
| 20260901170423 | 91 | 312 | 3.0 | 9.0 | 0.00 | 0.00 | 0.00 | 61 | 975.2 |
| 20260901165918 | 91 | 307 | 4.0 | 9.0 | 0.00 | 0.00 | 0.00 | 62 | 975.3 |
| 20260901165412 | 90 | 316 | 3.0 | 8.0 | 0.00 | 0.00 | 0.00 | 66 | 975.3 |
| 20260901164906 | 91 | 274 | 2.0 | 7.0 | 0.00 | 0.00 | 0.00 | 63 | 975.4 |
| 20260901164359 | 91 | 44 | 2.0 | 7.0 | 0.00 | 0.00 | 0.00 | 63 | 975.4 |
| 20260901163854 | 90 | 30 | 3.0 | 12.0 | 0.00 | 0.00 | 0.00 | 65 | 975.5 |
| 20260901162842 | 91 | 318 | 1.0 | 6.0 | 0.00 | 0.00 | 0.00 | 65 | 975.6 |
| 20260901162337 | 91 | 67 | 1.0 | 6.0 | 0.00 | 0.00 | 0.00 | 65 | 975.7 |
| 20260901161830 | 90 | 72 | 1.0 | 4.0 | 0.00 | 0.00 | 0.00 | 63 | 975.7 |
| 20260901161325 | 90 | 17 | 1.0 | 4.0 | 0.00 | 0.00 | 0.00 | 66 | 975.7 |
| 20260901160312 | 90 | 231 | 2.0 | 6.0 | 0.00 | 0.00 | 0.00 | 68 | 975.8 |
| 20260901155812 | 89 | 327 | 1.0 | 6.0 | 0.00 | 0.00 | 0.00 | 67 | 975.9 |
| 20260901154812 | 89 | 296 | 1.0 | 7.0 | 0.00 | 0.00 | 0.00 | 68 | 976.0 |
| 20260901154311 | 89 | 295 | 1.0 | 7.0 | 0.00 | 0.00 | 0.00 | 68 | 976.0 |
| 20260901153810 | 88 | 294 | 2.0 | 8.0 | 0.00 | 0.00 | 0.00 | 69 | 976.0 |
| 20260901153308 | 89 | 317 | 2.0 | 8.0 | 0.00 | 0.00 | 0.00 | 68 | 976.1 |
| 20260901152807 | 88 | 291 | 2.0 | 8.0 | 0.00 | 0.00 | 0.00 | 71 | 976.1 |
| 20260901152307 | 88 | 347 | 2.0 | 8.0 | 0.00 | 0.00 | 0.00 | 72 | 976.1 |
| 20260901151809 | 88 | 288 | 2.0 | 5.0 | 0.00 | 0.00 | 0.00 | 70 | 976.2 |
| 20260901151308 | 88 | 298 | 2.0 | 6.0 | 0.00 | 0.00 | 0.00 | 74 | 976.2 |
| 20260901150804 | 88 | 332 | 1.0 | 6.0 | 0.00 | 0.00 | 0.00 | 75 | 976.2 |
| 20260901150305 | 88 | 309 | 0.0 | 3.0 | 0.00 | 0.00 | 0.00 | 74 | 976.2 |
| 20260901145803 | 87 | 309 | 1.0 | 3.0 | 0.00 | 0.00 | 0.00 | 77 | 976.3 |
| 20260901145306 | 87 | 304 | 1.0 | 4.0 | 0.00 | 0.00 | 0.00 | 75 | 976.3 |
| 20260901144804 | 86 | 304 | 1.0 | 4.0 | 0.00 | 0.00 | 0.00 | 75 | 976.3 |
| 20260901143803 | 86 | 337 | 1.0 | 3.0 | 0.00 | 0.00 | 0.00 | 77 | 976.3 |
| 20260901143304 | 85 | 338 | 0.0 | 3.0 | 0.00 | 0.00 | 0.00 | 78 | 976.3 |
| 20260901141259 | 84 | 9 | 0.0 | 3.0 | 0.00 | 0.00 | 0.00 | 82 | 976.2 |
| 20260901140800 | 83 | 36 | 1.0 | 4.0 | 0.00 | 0.00 | 0.00 | 84 | 976.2 |
| 20260901140301 | 83 | 355 | 1.0 | 4.0 | 0.00 | 0.00 | 0.00 | 84 | 976.2 |
| 20260901135802 | 82 | 341 | 0.0 | 3.0 | 0.00 | 0.00 | 0.00 | 85 | 976.2 |
| 20260901135305 | 81 | 340 | 0.0 | 2.0 | 0.00 | 0.00 | 0.00 | 84 | 976.1 |
| 20260901134804 | 80 | 340 | 1.0 | 3.0 | 0.00 | 0.00 | 0.00 | 84 | 976.1 |
| 20260901134303 | 79 | 304 | 0.0 | 3.0 | 0.00 | 0.00 | 0.00 | 81 | 976.2 |
| 20260901133753 | 78 | 297 | 0.0 | 1.0 | 0.00 | 0.00 | 0.00 | 77 | 976.2 |
| 20260901133249 | 77 | 297 | 0.0 | 0.0 | 0.00 | 0.00 | 0.00 | 72 | 976.2 |
| 20260901132743 | 77 | 297 | 0.0 | 0.0 | 0.00 | 0.00 | 0.00 | 68 | 976.2 |
| 20260901132237 | 76 | 297 | 0.0 | 0.0 | 0.00 | 0.00 | 0.00 | 66 | 976.2 |
| 20260901131225 | 75 | 297 | 0.0 | 0.0 | 0.00 | 0.00 | 0.00 | 66 | 976.2 |
| 20260901130720 | 74 | 297 | 0.0 | 0.0 | 0.00 | 0.00 | 0.00 | 67 | 976.1 |
| 20260901130215 | 73 | 297 | 0.0 | 0.0 | 0.00 | 0.00 | 0.00 | 67 | 976.1 |
| 20260901125707 | 72 | 297 | 0.0 | 0.0 | 0.00 | 0.00 | 0.00 | 67 | 976.2 |
| 20260901125203 | 71 | 297 | 0.0 | 0.0 | 0.00 | 0.00 | 0.00 | 67 | 976.3 |
| 20260901124655 | 70 | 297 | 0.0 | 0.0 | 0.00 | 0.00 | 0.00 | 67 | 976.2 |
| 20260901124152 | 70 | 297 | 0.0 | 0.0 | 0.00 | 0.00 | 0.00 | 68 | 976.2 |
| 20260901123651 | 69 | 297 | 0.0 | 0.0 | 0.00 | 0.00 | 0.00 | 68 | 976.2 |
| 20260901123151 | 69 | 297 | 0.0 | 0.0 | 0.00 | 0.00 | 0.00 | 68 | 976.1 |
| 20260901122651 | 69 | 297 | 0.0 | 0.0 | 0.00 | 0.00 | 0.00 | 68 | 976.1 |
| 20260901122149 | 69 | 297 | 0.0 | 0.0 | 0.00 | 0.00 | 0.00 | 68 | 976.1 |
| 20260901121648 | 68 | 297 | 0.0 | 0.0 | 0.00 | 0.00 | 0.00 | 68 | 976.0 |
| 20260901121147 | 68 | 297 | 0.0 | 0.0 | 0.00 | 0.00 | 0.00 | 68 | 976.0 |
| 20260901120147 | 68 | 297 | 0.0 | 0.0 | 0.00 | 0.00 | 0.00 | 68 | 975.9 |
| 20260901115644 | 68 | 297 | 0.0 | 0.0 | 0.00 | 0.00 | 0.00 | 68 | 975.9 |
| 20260901115141 | 68 | 297 | 0.0 | 0.0 | 0.00 | 0.00 | 0.00 | 68 | 975.8 |
| 20260901114639 | 68 | 297 | 0.0 | 0.0 | 0.00 | 0.00 | 0.00 | 68 | 975.8 |
| 20260901114140 | 68 | 297 | 0.0 | 0.0 | 0.00 | 0.00 | 0.00 | 68 | 975.8 |
| 20260901113636 | 67 | 297 | 0.0 | 0.0 | 0.00 | 0.00 | 0.00 | 68 | 975.7 |
| 20260901113137 | 67 | 297 | 0.0 | 0.0 | 0.00 | 0.00 | 0.00 | 68 | 975.7 |
| 20260901112635 | 67 | 297 | 0.0 | 0.0 | 0.00 | 0.00 | 0.00 | 68 | 975.6 |
| 20260901112133 | 67 | 297 | 0.0 | 0.0 | 0.00 | 0.00 | 0.00 | 69 | 975.6 |
| 20260901111632 | 67 | 297 | 0.0 | 0.0 | 0.00 | 0.00 | 0.00 | 68 | 975.5 |
| 20260901111129 | 67 | 297 | 0.0 | 0.0 | 0.00 | 0.00 | 0.00 | 69 | 975.5 |
| 20260901110627 | 67 | 297 | 0.0 | 0.0 | 0.00 | 0.00 | 0.00 | 69 | 975.4 |
| 20260901110127 | 67 | 297 | 0.0 | 0.0 | 0.00 | 0.00 | 0.00 | 69 | 975.3 |
| 20260901105113 | 66 | 297 | 0.0 | 0.0 | 0.00 | 0.00 | 0.00 | 69 | 975.2 |
| 20260901104607 | 66 | 297 | 0.0 | 0.0 | 0.00 | 0.00 | 0.00 | 69 | 975.1 |
| 20260901104101 | 66 | 297 | 0.0 | 0.0 | 0.00 | 0.00 | 0.00 | 69 | 975.0 |
| 20260901103555 | 66 | 297 | 0.0 | 0.0 | 0.00 | 0.00 | 0.00 | 69 | 975.0 |
| 20260901103048 | 67 | 297 | 0.0 | 0.0 | 0.00 | 0.00 | 0.00 | 69 | 975.0 |
| 20260901102037 | 67 | 297 | 0.0 | 0.0 | 0.00 | 0.00 | 0.00 | 69 | 974.9 |
| 20260901101025 | 67 | 297 | 0.0 | 0.0 | 0.00 | 0.00 | 0.00 | 69 | 974.9 |
| 20260901100519 | 67 | 297 | 0.0 | 0.0 | 0.00 | 0.00 | 0.00 | 69 | 974.9 |
| 20260901095000 | 67 | 297 | 0.0 | 0.0 | 0.00 | 0.00 | 0.00 | 69 | 974.8 |
| 20260901094455 | 67 | 297 | 0.0 | 0.0 | 0.00 | 0.00 | 0.00 | 69 | 974.9 |
| 20260901093950 | 67 | 297 | 0.0 | 0.0 | 0.00 | 0.00 | 0.00 | 69 | 974.8 |
| 20260901093443 | 67 | 297 | 0.0 | 0.0 | 0.00 | 0.00 | 0.00 | 69 | 974.8 |
| 20260901092937 | 67 | 297 | 0.0 | 0.0 | 0.00 | 0.00 | 0.00 | 69 | 974.8 |
| 20260901092432 | 67 | 297 | 0.0 | 0.0 | 0.00 | 0.00 | 0.00 | 69 | 974.8 |
| 20260901091924 | 67 | 297 | 0.0 | 0.0 | 0.00 | 0.00 | 0.00 | 69 | 974.8 |
| 20260901091418 | 67 | 297 | 0.0 | 0.0 | 0.00 | 0.00 | 0.00 | 69 | 974.9 |
| 20260901090913 | 67 | 297 | 0.0 | 0.0 | 0.00 | 0.00 | 0.00 | 69 | 974.8 |
| 20260901090407 | 67 | 297 | 0.0 | 0.0 | 0.00 | 0.00 | 0.00 | 69 | 974.9 |
| 20260901085354 | 67 | 297 | 0.0 | 0.0 | 0.00 | 0.00 | 0.00 | 69 | 974.8 |
| 20260901084849 | 67 | 297 | 0.0 | 0.0 | 0.00 | 0.00 | 0.00 | 70 | 974.9 |
| 20260901084342 | 67 | 297 | 0.0 | 0.0 | 0.00 | 0.00 | 0.00 | 69 | 974.9 |
| 20260901082319 | 68 | 297 | 0.0 | 0.0 | 0.00 | 0.00 | 0.00 | 69 | 975.0 |
| 20260901081812 | 68 | 297 | 0.0 | 0.0 | 0.00 | 0.00 | 0.00 | 69 | 975.1 |
| 20260901081306 | 68 | 297 | 0.0 | 0.0 | 0.00 | 0.00 | 0.00 | 69 | 975.0 |
| 20260901080800 | 68 | 297 | 0.0 | 0.0 | 0.00 | 0.00 | 0.00 | 69 | 975.1 |
| 20260901080255 | 68 | 297 | 0.0 | 0.0 | 0.00 | 0.00 | 0.00 | 69 | 975.1 |
| 20260901075749 | 68 | 297 | 0.0 | 0.0 | 0.00 | 0.00 | 0.00 | 69 | 975.1 |
| 20260901075243 | 68 | 297 | 0.0 | 0.0 | 0.00 | 0.00 | 0.00 | 69 | 975.2 |
| 20260901074737 | 68 | 297 | 0.0 | 0.0 | 0.00 | 0.00 | 0.00 | 70 | 975.2 |
| 20260901074231 | 68 | 297 | 0.0 | 0.0 | 0.00 | 0.00 | 0.00 | 69 | 975.2 |
| 20260901073724 | 69 | 297 | 0.0 | 0.0 | 0.00 | 0.00 | 0.00 | 69 | 975.2 |
| 20260901073218 | 69 | 297 | 0.0 | 0.0 | 0.00 | 0.00 | 0.00 | 69 | 975.2 |
| 20260901072712 | 69 | 297 | 0.0 | 0.0 | 0.00 | 0.00 | 0.00 | 69 | 975.3 |
| 20260901072207 | 69 | 297 | 0.0 | 0.0 | 0.00 | 0.00 | 0.00 | 69 | 975.3 |
| 20260901071154 | 69 | 297 | 0.0 | 0.0 | 0.00 | 0.00 | 0.00 | 69 | 975.4 |
| 20260901070648 | 69 | 297 | 0.0 | 0.0 | 0.00 | 0.00 | 0.00 | 69 | 975.4 |
| 20260901065636 | 69 | 297 | 0.0 | 0.0 | 0.00 | 0.00 | 0.00 | 70 | 975.4 |
| 20260901065131 | 69 | 297 | 0.0 | 0.0 | 0.00 | 0.00 | 0.00 | 70 | 975.4 |
| 20260901064625 | 69 | 297 | 0.0 | 0.0 | 0.00 | 0.00 | 0.00 | 70 | 975.4 |
| 20260901064119 | 69 | 297 | 0.0 | 0.0 | 0.00 | 0.00 | 0.00 | 70 | 975.4 |
| 20260901063612 | 69 | 297 | 0.0 | 0.0 | 0.00 | 0.00 | 0.00 | 70 | 975.6 |
| 20260901063107 | 69 | 297 | 0.0 | 0.0 | 0.00 | 0.00 | 0.00 | 70 | 975.6 |
| 20260901062601 | 69 | 297 | 0.0 | 0.0 | 0.00 | 0.00 | 0.00 | 70 | 975.6 |
| 20260901062055 | 69 | 297 | 0.0 | 0.0 | 0.00 | 0.00 | 0.00 | 70 | 975.7 |
| 20260901061548 | 69 | 297 | 0.0 | 0.0 | 0.00 | 0.00 | 0.00 | 70 | 975.7 |
| 20260901061042 | 69 | 297 | 0.0 | 0.0 | 0.00 | 0.00 | 0.00 | 70 | 975.7 |
| 20260901060537 | 69 | 297 | 0.0 | 0.0 | 0.00 | 0.00 | 0.00 | 70 | 975.7 |
| 20260901055525 | 70 | 297 | 0.0 | 0.0 | 0.00 | 0.00 | 0.00 | 70 | 975.7 |
| 20260901055019 | 70 | 297 | 0.0 | 0.0 | 0.00 | 0.00 | 0.00 | 70 | 975.7 |
| 20260901054512 | 70 | 297 | 0.0 | 0.0 | 0.00 | 0.00 | 0.00 | 70 | 975.7 |
| 20260901054006 | 70 | 297 | 0.0 | 0.0 | 0.00 | 0.00 | 0.00 | 70 | 975.7 |
| 20260901053500 | 70 | 297 | 0.0 | 0.0 | 0.00 | 0.00 | 0.00 | 70 | 975.8 |
| 20260901052954 | 70 | 297 | 0.0 | 0.0 | 0.00 | 0.00 | 0.00 | 71 | 975.8 |
| 20260901052449 | 70 | 297 | 0.0 | 0.0 | 0.00 | 0.00 | 0.00 | 71 | 975.8 |
| 20260901050936 | 70 | 297 | 0.0 | 0.0 | 0.00 | 0.00 | 0.00 | 71 | 976.0 |
| 20260901050435 | 70 | 297 | 0.0 | 0.0 | 0.00 | 0.00 | 0.00 | 71 | 975.9 |
| 20260901044930 | 70 | 297 | 0.0 | 0.0 | 0.00 | 0.00 | 0.00 | 71 | 975.7 |
| 20260901044431 | 70 | 297 | 0.0 | 0.0 | 0.00 | 0.00 | 0.00 | 72 | 975.7 |
| 20260901043933 | 70 | 297 | 0.0 | 0.0 | 0.00 | 0.00 | 0.00 | 72 | 975.8 |
| 20260901043431 | 70 | 297 | 0.0 | 0.0 | 0.00 | 0.00 | 0.00 | 72 | 975.7 |
| 20260901042928 | 70 | 297 | 0.0 | 0.0 | 0.00 | 0.00 | 0.00 | 72 | 975.7 |
| 20260901041925 | 70 | 297 | 0.0 | 0.0 | 0.00 | 0.00 | 0.00 | 73 | 975.7 |
| 20260901041424 | 71 | 297 | 0.0 | 0.0 | 0.00 | 0.00 | 0.00 | 72 | 975.7 |
| 20260901040925 | 71 | 297 | 0.0 | 0.0 | 0.00 | 0.00 | 0.00 | 73 | 975.6 |
| 20260901035920 | 71 | 297 | 0.0 | 0.0 | 0.00 | 0.00 | 0.00 | 73 | 975.6 |
| 20260901035415 | 71 | 297 | 0.0 | 0.0 | 0.00 | 0.00 | 0.00 | 73 | 975.7 |
| 20260901034909 | 71 | 297 | 0.0 | 0.0 | 0.00 | 0.00 | 0.00 | 73 | 975.8 |
| 20260901034403 | 71 | 297 | 0.0 | 0.0 | 0.00 | 0.00 | 0.00 | 74 | 975.7 |
| 20260901033856 | 71 | 297 | 0.0 | 0.0 | 0.00 | 0.00 | 0.00 | 74 | 975.7 |
| 20260901033350 | 71 | 297 | 0.0 | 0.0 | 0.00 | 0.00 | 0.00 | 74 | 975.6 |
| 20260901032845 | 72 | 297 | 0.0 | 0.0 | 0.00 | 0.00 | 0.00 | 74 | 975.6 |
| 20260901032338 | 72 | 297 | 0.0 | 0.0 | 0.00 | 0.00 | 0.00 | 75 | 975.6 |
| 20260901031834 | 72 | 297 | 0.0 | 0.0 | 0.00 | 0.00 | 0.00 | 75 | 975.6 |
| 20260901031326 | 72 | 297 | 0.0 | 0.0 | 0.00 | 0.00 | 0.00 | 75 | 975.6 |
| 20260901030821 | 72 | 297 | 0.0 | 0.0 | 0.00 | 0.00 | 0.00 | 74 | 975.6 |
| 20260901030315 | 72 | 297 | 0.0 | 0.0 | 0.00 | 0.00 | 0.00 | 75 | 975.6 |
| 20260901025808 | 73 | 297 | 0.0 | 0.0 | 0.00 | 0.00 | 0.00 | 75 | 975.7 |
| 20260901025306 | 73 | 297 | 0.0 | 0.0 | 0.00 | 0.00 | 0.00 | 75 | 975.6 |
| 20260901024757 | 73 | 297 | 0.0 | 0.0 | 0.00 | 0.00 | 0.00 | 75 | 975.6 |
| 20260901024252 | 73 | 297 | 0.0 | 0.0 | 0.00 | 0.00 | 0.00 | 76 | 975.5 |
| 20260901023746 | 73 | 297 | 0.0 | 0.0 | 0.00 | 0.00 | 0.00 | 77 | 975.6 |
| 20260901023238 | 73 | 297 | 0.0 | 0.0 | 0.00 | 0.00 | 0.00 | 77 | 975.6 |
| 20260901022732 | 73 | 297 | 0.0 | 0.0 | 0.00 | 0.00 | 0.00 | 77 | 975.5 |
| 20260901022226 | 73 | 297 | 0.0 | 0.0 | 0.00 | 0.00 | 0.00 | 77 | 975.6 |
| 20260901021725 | 73 | 297 | 0.0 | 0.0 | 0.00 | 0.00 | 0.00 | 77 | 975.5 |
| 20260901021224 | 73 | 297 | 0.0 | 0.0 | 0.00 | 0.00 | 0.00 | 77 | 975.5 |
| 20260901020723 | 74 | 297 | 0.0 | 0.0 | 0.00 | 0.00 | 0.00 | 77 | 975.4 |
| 20260901020221 | 74 | 297 | 0.0 | 0.0 | 0.00 | 0.00 | 0.00 | 78 | 975.4 |
| 20260901015718 | 74 | 297 | 0.0 | 0.0 | 0.00 | 0.00 | 0.00 | 78 | 975.3 |
| 20260901015219 | 74 | 297 | 0.0 | 0.0 | 0.00 | 0.00 | 0.00 | 79 | 975.2 |
| 20260901014719 | 74 | 297 | 0.0 | 0.0 | 0.00 | 0.00 | 0.00 | 79 | 975.2 |
| 20260901014217 | 74 | 297 | 0.0 | 0.0 | 0.00 | 0.00 | 0.00 | 79 | 975.1 |
| 20260901013717 | 74 | 297 | 0.0 | 0.0 | 0.00 | 0.00 | 0.00 | 79 | 975.1 |
| 20260901013215 | 74 | 297 | 0.0 | 0.0 | 0.00 | 0.00 | 0.00 | 80 | 975.0 |
| 20260901012217 | 74 | 297 | 0.0 | 0.0 | 0.00 | 0.00 | 0.00 | 81 | 974.9 |
| 20260901011715 | 74 | 297 | 0.0 | 0.0 | 0.00 | 0.00 | 0.00 | 82 | 974.9 |
| 20260901011213 | 75 | 297 | 0.0 | 0.0 | 0.00 | 0.00 | 0.00 | 83 | 974.8 |
| 20260901010713 | 75 | 297 | 0.0 | 0.0 | 0.00 | 0.00 | 0.00 | 83 | 974.8 |
| 20260901010213 | 75 | 297 | 0.0 | 0.0 | 0.00 | 0.00 | 0.00 | 83 | 974.8 |
| 20260901005712 | 75 | 297 | 0.0 | 0.0 | 0.00 | 0.00 | 0.00 | 83 | 974.7 |
| 20260901005213 | 76 | 297 | 0.0 | 0.0 | 0.00 | 0.00 | 0.00 | 84 | 974.7 |
| 20260901004712 | 76 | 297 | 0.0 | 0.0 | 0.00 | 0.00 | 0.00 | 84 | 974.7 |
| 20260901004213 | 76 | 297 | 0.0 | 0.0 | 0.00 | 0.00 | 0.00 | 84 | 974.7 |
| 20260901003713 | 76 | 297 | 0.0 | 0.0 | 0.00 | 0.00 | 0.00 | 84 | 974.7 |
| 20260901003214 | 76 | 297 | 0.0 | 0.0 | 0.00 | 0.00 | 0.00 | 85 | 974.7 |
| 20260901002713 | 77 | 297 | 0.0 | 0.0 | 0.00 | 0.00 | 0.00 | 85 | 974.8 |
| 20260901001708 | 77 | 297 | 0.0 | 1.0 | 0.00 | 0.00 | 0.00 | 86 | 974.7 |
| 20260901001210 | 78 | 297 | 0.0 | 0.0 | 0.00 | 0.00 | 0.00 | 86 | 974.6 |
| 20260901000709 | 78 | 297 | 0.0 | 0.0 | 0.00 | 0.00 | 0.00 | 86 | 974.6 |
| 20260901000211 | 78 | 297 | 0.0 | 0.0 | 0.00 | 0.00 | 0.00 | 86 | 974.6 |
| 20260831235709 | 79 | 297 | 0.0 | 0.0 | 0.00 | 0.00 | 0.00 | 86 | 974.6 |
| 20260831235209 | 79 | 297 | 0.0 | 0.0 | 0.00 | 0.00 | 0.00 | 86 | 974.6 |
| 20260831234709 | 80 | 297 | 0.0 | 0.0 | 0.00 | 0.00 | 0.00 | 86 | 974.6 |
| 20260831234208 | 80 | 297 | 0.0 | 0.0 | 0.00 | 0.00 | 0.00 | 86 | 974.6 |
| 20260831233709 | 80 | 297 | 0.0 | 0.0 | 0.00 | 0.00 | 0.00 | 86 | 974.6 |
| 20260831233208 | 81 | 297 | 0.0 | 0.0 | 0.00 | 0.00 | 0.00 | 86 | 974.6 |
| 20260831232709 | 81 | 297 | 0.0 | 0.0 | 0.00 | 0.00 | 0.00 | 85 | 974.6 |
| 20260831232210 | 82 | 297 | 0.0 | 0.0 | 0.00 | 0.00 | 0.00 | 84 | 974.6 |
| 20260831231206 | 84 | 297 | 0.0 | 0.0 | 0.00 | 0.00 | 0.00 | 82 | 974.7 |
| 20260831230704 | 84 | 297 | 0.0 | 0.0 | 0.00 | 0.00 | 0.00 | 81 | 974.7 |
| 20260831225702 | 85 | 297 | 0.0 | 0.0 | 0.00 | 0.00 | 0.00 | 79 | 974.7 |
| 20260831225201 | 86 | 297 | 0.0 | 0.0 | 0.00 | 0.00 | 0.00 | 77 | 974.7 |
| 20260831224700 | 87 | 297 | 0.0 | 0.0 | 0.00 | 0.00 | 0.00 | 74 | 974.7 |
| 20260831224202 | 88 | 297 | 0.0 | 0.0 | 0.00 | 0.00 | 0.00 | 73 | 974.7 |
| 20260831223656 | 89 | 297 | 0.0 | 0.0 | 0.00 | 0.00 | 0.00 | 71 | 974.8 |
| 20260831223150 | 89 | 297 | 0.0 | 0.0 | 0.00 | 0.00 | 0.00 | 70 | 974.8 |
| 20260831222644 | 90 | 297 | 0.0 | 0.0 | 0.00 | 0.00 | 0.00 | 68 | 974.8 |
| 20260831222138 | 90 | 297 | 0.0 | 0.0 | 0.00 | 0.00 | 0.00 | 67 | 974.8 |
| 20260831221633 | 89 | 297 | 0.0 | 0.0 | 0.00 | 0.00 | 0.00 | 67 | 974.7 |
| 20260831221126 | 89 | 297 | 0.0 | 1.0 | 0.00 | 0.00 | 0.00 | 68 | 974.7 |
| 20260831220620 | 89 | 297 | 0.0 | 1.0 | 0.00 | 0.00 | 0.00 | 68 | 974.9 |
| 20260831215608 | 89 | 297 | 0.0 | 1.0 | 0.00 | 0.00 | 0.00 | 69 | 974.9 |
| 20260831215102 | 89 | 297 | 0.0 | 1.0 | 0.00 | 0.00 | 0.00 | 70 | 975.0 |
| 20260831214556 | 88 | 297 | 0.0 | 1.0 | 0.00 | 0.00 | 0.00 | 71 | 975.0 |
| 20260831214050 | 88 | 297 | 0.0 | 2.0 | 0.00 | 0.00 | 0.00 | 73 | 975.1 |
| 20260831213544 | 87 | 297 | 0.0 | 2.0 | 0.00 | 0.00 | 0.00 | 73 | 975.1 |
| 20260831213038 | 86 | 297 | 0.0 | 0.0 | 0.00 | 0.00 | 0.00 | 76 | 975.1 |
| 20260831212532 | 85 | 297 | 0.0 | 1.0 | 0.00 | 0.00 | 0.00 | 78 | 975.2 |
| 20260831212026 | 84 | 297 | 0.0 | 1.0 | 0.00 | 0.00 | 0.00 | 79 | 975.1 |
| 20260831211520 | 83 | 297 | 0.0 | 0.0 | 0.00 | 0.00 | 0.00 | 81 | 975.1 |